Hourly Data Report for September 12, 2017

All times are specified in Local Standard Time (LST). Add 1 hour to adjust for Daylight Saving Time where and when it is observed.

HALL BEACH A
NUNAVUT

68°46'33.000" N
81°14'33.000" W
9.10 m
2402354
71293
YUX

Download Data

Hourly Data (September 2017)
Hourly Data Report for September 12, 2017
Temp Definition
°C
Dew Point Temp Definition
°C
Rel Hum Definition
%
Wind Dir Definition
10's deg

Wind Spd Definition
km/h
Visibility Definition
km
Stn Press Definition
kPa
Hmdx Definition


Wind Chill Definition


Weather Definition


TIME
00:00 Legend Double Dagger 0.2 -0.8 93 1 32 16.1 100.60     LegendNANA
01:00 Legend Double Dagger 0.2 -1.3 90 3 28 16.1 100.60     LegendNANA
02:00 Legend Double Dagger 0.6 -0.6 92 4 30 16.1 100.61     LegendNANA
03:00 Legend Double Dagger 0.6 -0.7 91 2 30 16.1 100.64     LegendNANA
04:00 Legend Double Dagger 0.4 -0.8 92 1 30 16.1 100.63     LegendNANA
05:00 Legend Double Dagger 0.4 -0.9 91 2 30 16.1 100.64     LegendNANA
06:00 Legend Double Dagger 0.4 -0.9 91 2 34 16.1 100.66     LegendNANA
07:00 Legend Double Dagger 0.6 -0.5 93 5 30 16.1 100.71     LegendNANA
08:00 Legend Double Dagger 0.7 -0.5 92 4 24 16.1 100.74     LegendNANA
09:00 Legend Double Dagger 0.8 -0.2 93 3 28 16.1 100.74     LegendNANA
10:00 Legend Double Dagger 1.9 0.4 90 2 24 16.1 100.75     LegendNANA
11:00 Legend Double Dagger 2.0 0.3 89 3 22 16.1 100.77     LegendNANA
12:00 Legend Double Dagger 2.1 0.3 88 3 28 16.1 100.78     LegendNANA
13:00 Legend Double Dagger 2.4 0.5 87 2 26 16.1 100.80     LegendNANA
14:00 Legend Double Dagger 2.5 -0.3 82 2 28 16.1 100.82     LegendNANA
15:00 Legend Double Dagger 2.8 -0.1 82 2 26 16.1 100.84     LegendNANA
16:00 Legend Double Dagger 2.6 -0.2 82 2 24 16.1 100.87     LegendNANA
17:00 Legend Double Dagger 2.2 -0.4 83 2 22 16.1 100.91     LegendNANA
18:00 Legend Double Dagger 1.9 -1.2 80 4 26 16.1 100.95     LegendNANA
19:00 Legend Double Dagger 1.3 -0.8 86 3 22 16.1 100.97     LegendNANA
20:00 Legend Double Dagger 1.1 -0.8 87 2 26 16.1 101.00     LegendNANA
21:00 Legend Double Dagger 0.9 -1.3 85 2 28 16.1 101.03     LegendNANA
22:00 Legend Double Dagger 0.9 -1.3 85 3 28 16.1 101.04     LegendNANA
23:00 Legend Double Dagger 0.7 -1.4 86 3 32 16.1 101.05     LegendNANA

Notes on Data Quality.

Legend

  • E = Estimated
  • M = Missing
  • NA = Not Available
  • ‡ = Partner data that is not subject to review by the National Climate Archives
Date modified: